Home > Weather > Durham > Past weeks

Flag for U.S.A. Weather for the Past 2 Weeks in Durham, North Carolina, U.S.A.

Now
25 °F

Clear.


Feels Like: 18 °F
Forecast: 21 / 39 °F
Wind: 6 mph from Northwest

Location: Raleigh-Durham International Airport

Current Time: Feb 11, 2016 at 2:21:47 AM

Latest Report: Feb 11, 2016 at 1:51 AM


Visibility: 10 mi

Pressure: 30.09 "Hg

Humidity: 42%

Dew point: 5 °F

Location of DurhamLocation

Historic Weather in Durham — Graph

°F

Durham Temperature Yesterday

Maximum temperature yesterday: 39 °F (at 1:51 PM)
Minimum temperature yesterday: 25 °F (at 3:51 AM)
Average temperature yesterday: 31 °F

High & Low Weather Summary for the Past Weeks

 TemperatureHumidityPressure
High72 °F (Feb 1, 2:51 PM)97% (Feb 1, 11:51 PM)30.47 "Hg (Feb 1, 11:51 PM)
Low25 °F (Feb 10, 3:51 AM)27% (Jan 30, 1:51 PM)29.60 "Hg (Feb 9, 3:51 AM)
Average45 °F65%30.01 "Hg
* Reported Jan 27 12:51 AM — Feb 11 12:51 AM, Durham, Weather by CustomWeather, © 2016

Note: Actual official high and low records may vary slightly from our data, if they occured in-between our weather recording intervals... More about our weather records

Advertising

Durham Weather History for the Previous 24 Hours

 ConditionsComfort  
Time TempWeatherWind HumidityBarometerVisibility
12:51 AM
Thu, Feb 11
26 °FPassing clouds.10 mph42%30.08 "Hg10 mi
11:51 PM
Wed, Feb 10
27 °FPassing clouds.6 mph42%30.07 "Hg10 mi
10:51 PM28 °FPassing clouds.7 mph41%30.06 "Hg10 mi
9:51 PM28 °FPassing clouds.7 mph41%30.04 "Hg10 mi
8:51 PM29 °FClear.6 mph39%30.03 "Hg10 mi
7:51 PM30 °FPassing clouds.8 mph38%30.00 "Hg10 mi
6:51 PM32 °FPassing clouds.9 mph36%29.98 "Hg10 mi
5:51 PM35 °FPassing clouds.10 mph36%29.94 "Hg10 mi
4:51 PM36 °FPartly sunny.13 mph37%29.92 "Hg10 mi
3:51 PM37 °FPartly sunny.8 mph37%29.89 "Hg10 mi
2:51 PM37 °FPartly sunny.10 mph39%29.88 "Hg10 mi
1:51 PM39 °FPartly sunny.9 mph38%29.87 "Hg10 mi
12:51 PM38 °FScattered clouds.8 mph37%29.89 "Hg10 mi
11:51 AM36 °FPassing clouds.6 mph42%29.91 "Hg10 mi
10:51 AM34 °FPassing clouds.12 mph48%29.94 "Hg10 mi
9:51 AM32 °FSunny.9 mph47%29.94 "Hg10 mi
8:51 AM29 °FSunny.8 mph54%29.94 "Hg10 mi
7:51 AM26 °FSunny.6 mph60%29.92 "Hg10 mi
6:51 AM26 °FPassing clouds.5 mph57%29.91 "Hg10 mi
5:51 AM26 °FClear.7 mph57%29.89 "Hg10 mi
4:51 AM25 °FClear.6 mph60%29.86 "Hg10 mi
3:51 AM25 °FClear.5 mph60%29.84 "Hg10 mi
2:51 AM26 °FClear.3 mph57%29.85 "Hg10 mi
Weather by CustomWeather, © 2016

See weather overviewHow to use our weather pages